QPF
0.00 0.00 0.00 0.00 0.00 0.00 0.00 0.00 0.00 0.00 0.00 0.00 0.00 0.00 0.00 0.00 0.00 0.00 0.00 0.00 0.00 0.00 0.00 0.00 0.00 0.00 0.00 0.00 0.00 0.00 0.00 0.00 0.00 0.00 0.00 0.00 0.00 0.00 0.00 0.00 0.00 0.01 0.02 0.03
0.00 0.00 0.00 0.00 0.00 0.00 0.00 0.00 0.00 0.00 0.00 0.00 0.00 0.00 0.00 0.00 0.00 0.00 0.00 0.00 0.00 0.00 0.00 0.00 0.00 0.00 0.00 0.00 0.00 0.00 0.00 0.00 0.00 0.00 0.00 0.00 0.00 0.00 0.00 0.00 0.00 0.00 0.00 0.02
0.00 0.00 0.00 0.00 0.00 0.00 0.00 0.00 0.00 0.00 0.00 0.00 0.00 0.00 0.00 0.00 0.00 0.00 0.00 0.00 0.00 0.00 0.00 0.00 0.00 0.00 0.00 0.00 0.00 0.00 0.00 0.00 0.00 0.00 0.00 0.00 0.00 0.00 0.00 0.00 0.00 0.00 0.00 0.00
0.00 0.00 0.00 0.00 0.00 0.00 0.00 0.00 0.00 0.00 0.00 0.00 0.00 0.00 0.00 0.00 0.00 0.00 0.00 0.00 0.00 0.00 0.00 0.00 0.00 0.00 0.00 0.00 0.00 0.00 0.00 0.00 0.00 0.00 0.00 0.00 0.00 0.00 0.00 0.00 0.00 0.00 0.00 0.00
0.00 0.00 0.00 0.00 0.00 0.00 0.00 0.00 0.00 0.00 0.00 0.00 0.00 0.00 0.00 0.00 0.00 0.00 0.00 0.00 0.00 0.00 0.00 0.00 0.00 0.00 0.00 0.00 0.00 0.00 0.00 0.00 0.00 0.00 0.00 0.00 0.00 0.00 0.00 0.00 0.00 0.00 0.00 0.00
0.00 0.00 0.00 0.00 0.00 0.00 0.00 0.00 0.00 0.00 0.00 0.00 0.00 0.00 0.00 0.00 0.00 0.00 0.00 0.00 0.00 0.00 0.00 0.00 0.00 0.00 0.00 0.00 0.00 0.00 0.00 0.00 0.00 0.00 0.00 0.00 0.00 0.00 0.00 0.00 0.00 0.00 0.00 0.00
0.00 0.00 0.00 0.00 0.00 0.00 0.00 0.00 0.00 0.00 0.00 0.00 0.00 0.00 0.00 0.00 0.00 0.00 0.00 0.00 0.00 0.00 0.00 0.00 0.00 0.00 0.00 0.00 0.00 0.00 0.00 0.00 0.00 0.00 0.00 0.00 0.00 0.00 0.00 0.00 0.00 0.00 0.00 0.00
0.00 0.00 0.00 0.00 0.00 0.00 0.00 0.00 0.00 0.00 0.00 0.00 0.00 0.00 0.00 0.00 0.00 0.00 0.00 0.00 0.00 0.00 0.00 0.00 0.00 0.00 0.00 0.00 0.00 0.00 0.00 0.00 0.00 0.00 0.00 0.00 0.00 0.00 0.00 0.00 0.00 0.00 0.00 0.00
0.00 0.00 0.00 0.00 0.00 0.00 0.00 0.00 0.00 0.00 0.00 0.00 0.00 0.00 0.00 0.00 0.00 0.00 0.00 0.00 0.00 0.00 0.00 0.00 0.00 0.00 0.00 0.00 0.00 0.00 0.00 0.00 0.00 0.00 0.00 0.00 0.00 0.00 0.00 0.00 0.00 0.00 0.00 0.00
0.00 0.00 0.00 0.00 0.00 0.00 0.00 0.00 0.00 0.00 0.00 0.00 0.00 0.00 0.00 0.00 0.00 0.00 0.00 0.00 0.00 0.00 0.00 0.00 0.00 0.00 0.00 0.00 0.00 0.00 0.00 0.00 0.00 0.00 0.00 0.00 0.00 0.00 0.00 0.00 0.00 0.00 0.00 0.00
0.00 0.00 0.00 0.00 0.00 0.00 0.00 0.00 0.00 0.00 0.00 0.00 0.00 0.00 0.00 0.00 0.00 0.00 0.00 0.00 0.00 0.00 0.00 0.00 0.00 0.00 0.00 0.00 0.00 0.00 0.00 0.00 0.00 0.00 0.00 0.00 0.00 0.00 0.00 0.00 0.00 0.00 0.00 0.00
0.00 0.00 0.00 0.00 0.00 0.00 0.00 0.00 0.00 0.00 0.00 0.00 0.00 0.00 0.00 0.00 0.00 0.00 0.00 0.00 0.00 0.00 0.00 0.00 0.00 0.00 0.00 0.00 0.00 0.00 0.00 0.00 0.00 0.00 0.00 0.00 0.00 0.00 0.00 0.00 0.00 0.00 0.01 0.00
0.00 0.00 0.00 0.00 0.00 0.00 0.00 0.00 0.00 0.00 0.00 0.00 0.00 0.00 0.00 0.00 0.00 0.00 0.00 0.00 0.00 0.00 0.00 0.00 0.00 0.00 0.00 0.00 0.00 0.00 0.00 0.00 0.00 0.00 0.00 0.00 0.00 0.00 0.00 0.00 0.00 0.00 0.00 0.00
0.00 0.00 0.00 0.00 0.00 0.00 0.00 0.00 0.00 0.00 0.00 0.00 0.00 0.00 0.00 0.00 0.00 0.00 0.00 0.00 0.00 0.00 0.00 0.00 0.00 0.00 0.00 0.00 0.00 0.00 0.00 0.00 0.00 0.00 0.00 0.00 0.00 0.00 0.00 0.00 0.00 0.00 0.00 0.00
0.00 0.00 0.00 0.00 0.00 0.00 0.00 0.00 0.00 0.00 0.00 0.00 0.00 0.00 0.00 0.00 0.00 0.00 0.00 0.00 0.00 0.00 0.00 0.00 0.00 0.00 0.00 0.00 0.00 0.00 0.00 0.00 0.00 0.00 0.00 0.00 0.00 0.00 0.00 0.00 0.00 0.00 0.00 0.00
0.00 0.00 0.00 0.00 0.00 0.00 0.00 0.00 0.00 0.00 0.00 0.00 0.00 0.00 0.00 0.00 0.00 0.00 0.00 0.00 0.00 0.00 0.00 0.00 0.00 0.00 0.00 0.00 0.00 0.00 0.00 0.00 0.00 0.00 0.00 0.00 0.00 0.00 0.00 0.00 0.00 0.00 0.00 0.00
0.00 0.00 0.00 0.00 0.00 0.00 0.00 0.00 0.00 0.00 0.00 0.00 0.00 0.00 0.00 0.00 0.00 0.00 0.00 0.00 0.00 0.00 0.00 0.00 0.00 0.00 0.00 0.00 0.00 0.00 0.00 0.00 0.00 0.00 0.00 0.00 0.00 0.00 0.00 0.00 0.00 0.00 0.00 0.00
0.00 0.00 0.00 0.00 0.00 0.00 0.00 0.00 0.00 0.00 0.00 0.00 0.00 0.00 0.00 0.00 0.00 0.00 0.00 0.00 0.00 0.00 0.00 0.00 0.00 0.00 0.00 0.00 0.00 0.00 0.00 0.00 0.00 0.00 0.00 0.00 0.00 0.00 0.00 0.00 0.00 0.00 0.00 0.00
0.00 0.00 0.00 0.00 0.00 0.00 0.00 0.00 0.00 0.00 0.00 0.00 0.00 0.00 0.00 0.00 0.00 0.00 0.00 0.00 0.00 0.00 0.00 0.00 0.00 0.00 0.00 0.00 0.00 0.00 0.00 0.00 0.00 0.00 0.00 0.00 0.00 0.00 0.00 0.00 0.00 0.00 0.00 0.00
0.00 0.00 0.00 0.00 0.00 0.00 0.00 0.00 0.00 0.00 0.00 0.00 0.00 0.00 0.00 0.00 0.00 0.00 0.00 0.00 0.00 0.00 0.00 0.00 0.00 0.00 0.00 0.00 0.00 0.00 0.00 0.00 0.00 0.00 0.00 0.00 0.00 0.00 0.00 0.00 0.00 0.00 0.00 0.00
0.00 0.00 0.00 0.00 0.00 0.00 0.00 0.00 0.00 0.00 0.00 0.00 0.00 0.00 0.00 0.00 0.00 0.00 0.00 0.00 0.00 0.00 0.00 0.00 0.00 0.00 0.00 0.00 0.00 0.00 0.00 0.00 0.00 0.00 0.00 0.00 0.00 0.00 0.00 0.00 0.00 0.00 0.00 0.00
0.00 0.00 0.00 0.00 0.00 0.00 0.00 0.00 0.00 0.00 0.00 0.00 0.00 0.00 0.00 0.00 0.00 0.00 0.00 0.00 0.00 0.00 0.00 0.00 0.00 0.00 0.00 0.00 0.00 0.00 0.00 0.00 0.00 0.00 0.00 0.00 0.00 0.00 0.00 0.00 0.00 0.00 0.00 0.00
0.00 0.00 0.00 0.00 0.00 0.00 0.00 0.00 0.00 0.00 0.00 0.00 0.00 0.00 0.00 0.00 0.00 0.00 0.00 0.00 0.00 0.00 0.00 0.00 0.00 0.00 0.00 0.00 0.00 0.00 0.00 0.00 0.00 0.00 0.00 0.00 0.00 0.00 0.00 0.00 0.00 0.00 0.00 0.00
0.00 0.00 0.00 0.00 0.00 0.00 0.00 0.00 0.00 0.00 0.00 0.00 0.00 0.00 0.00 0.00 0.00 0.00 0.00 0.00 0.00 0.00 0.00 0.00 0.00 0.01 0.00 0.00 0.00 0.00 0.00 0.00 0.00 0.00 0.00 0.00 0.00 0.00 0.00 0.00 0.00 0.00 0.00 0.00
0.00 0.00 0.00 0.00 0.00 0.00 0.00 0.00 0.00 0.00 0.00 0.00 0.00 0.00 0.00 0.00 0.00 0.00 0.00 0.00 0.00 0.00 0.00 0.00 0.00 0.00 0.00 0.00 0.00 0.00 0.00 0.00 0.00 0.00 0.00 0.00 0.00 0.00 0.00 0.00 0.00 0.00 0.00 0.00
0.00 0.00 0.00 0.00 0.00 0.00 0.00 0.00 0.00 0.00 0.00 0.00 0.00 0.00 0.00 0.00 0.00 0.00 0.00 0.00 0.00 0.00 0.00 0.00 0.00 0.00 0.00 0.00 0.00 0.00 0.00 0.00 0.00 0.00 0.00 0.00 0.00 0.00 0.00 0.00 0.00 0.00 0.00 0.00
0.00 0.00 0.00 0.00 0.00 0.00 0.00 0.00 0.00 0.00 0.00 0.00 0.00 0.00 0.00 0.00 0.00 0.00 0.00 0.00 0.00 0.00 0.00 0.00 0.00 0.00 0.00 0.00 0.00 0.00 0.00 0.00 0.00 0.00 0.00 0.00 0.00 0.00 0.00 0.00 0.00 0.00 0.00 0.00
MSLP
1037.12 1036.49 1036.49 1036.96 1037.85 1039.13 1040.55 1041.07 1041.55 1040.10 1039.20 1036.27 1035.25 1034.27 1033.24 1032.07 1030.86 1030.00 1029.47 1028.90 1027.85 1027.56 1026.99 1026.74 1026.23 1025.68 1025.27 1024.60 1023.81 1022.80 1021.63 1020.42 1019.69 1018.50 1017.61 1016.22 1015.48 1014.81 1014.58 1013.94 1013.59 1012.73 1012.36 1012.85
1036.59 1035.35 1035.34 1035.36 1035.62 1036.83 1038.44 1039.34 1039.58 1038.94 1037.89 1035.30 1034.40 1033.94 1033.19 1032.57 1031.72 1030.83 1029.53 1028.86 1028.62 1028.33 1027.90 1027.17 1026.71 1026.78 1026.12 1025.33 1024.44 1023.38 1022.65 1021.73 1020.98 1019.57 1019.01 1017.41 1016.88 1015.84 1014.51 1013.63 1013.09 1012.59 1012.90 1012.03
1037.35 1035.77 1034.94 1034.49 1034.10 1035.04 1036.21 1036.86 1037.17 1036.86 1035.43 1034.71 1034.06 1033.49 1032.69 1032.18 1031.75 1031.19 1030.21 1029.73 1029.50 1029.03 1028.75 1027.91 1027.09 1027.25 1026.65 1025.60 1024.94 1024.26 1023.48 1022.87 1022.06 1020.71 1019.90 1019.23 1018.08 1016.81 1015.72 1014.93 1014.57 1014.11 1013.11 1012.66
1038.79 1036.79 1035.01 1033.12 1032.82 1033.32 1034.20 1034.22 1034.43 1034.14 1033.73 1033.54 1033.19 1032.71 1032.17 1031.63 1031.46 1031.00 1030.61 1030.29 1029.88 1029.39 1029.09 1028.07 1027.83 1027.66 1026.98 1025.95 1025.36 1025.02 1024.39 1023.43 1022.51 1021.46 1020.73 1019.95 1018.51 1018.05 1017.20 1016.42 1015.58 1015.01 1014.42 1013.89
1040.23 1038.93 1034.99 1032.63 1032.53 1032.84 1033.39 1032.52 1032.03 1032.38 1032.14 1032.11 1032.15 1032.13 1031.67 1030.88 1030.79 1030.57 1030.52 1030.34 1029.82 1029.65 1029.03 1028.38 1027.94 1027.55 1027.11 1026.36 1025.99 1025.51 1024.91 1024.08 1023.20 1022.22 1021.57 1020.83 1020.00 1019.25 1018.32 1017.14 1015.93 1015.93 1015.91 1015.14
1040.58 1039.19 1035.89 1032.59 1031.99 1032.33 1032.81 1032.18 1030.68 1031.01 1030.96 1031.33 1031.68 1031.91 1031.31 1030.66 1030.61 1030.52 1030.15 1030.02 1029.84 1028.86 1028.98 1029.00 1028.42 1028.07 1027.58 1026.92 1026.36 1025.81 1024.96 1024.31 1023.96 1023.15 1022.22 1021.61 1021.09 1020.29 1019.29 1018.30 1017.60 1017.45 1017.09 1016.67
1039.50 1038.34 1034.63 1031.89 1032.29 1032.66 1032.98 1031.27 1030.18 1030.40 1030.43 1030.83 1031.37 1030.81 1030.32 1030.29 1030.17 1030.00 1029.96 1029.85 1029.52 1029.54 1029.85 1029.65 1028.78 1028.59 1028.23 1027.85 1027.08 1026.29 1025.52 1024.77 1024.06 1023.51 1022.66 1022.35 1021.73 1020.97 1019.96 1019.39 1018.57 1018.30 1018.26 1017.74
1038.50 1037.20 1033.89 1031.90 1033.00 1032.72 1030.74 1030.62 1030.34 1030.37 1030.27 1030.44 1030.25 1030.09 1029.99 1029.91 1029.92 1029.87 1029.87 1029.84 1029.87 1029.94 1029.79 1029.46 1029.05 1028.85 1028.61 1028.25 1027.59 1026.82 1026.11 1025.53 1024.70 1023.80 1023.66 1023.29 1022.37 1021.51 1020.51 1019.94 1019.34 1019.24 1019.28 1018.87
1036.12 1032.89 1031.04 1030.93 1030.60 1030.52 1031.07 1031.04 1030.95 1030.83 1030.37 1030.34 1030.47 1030.12 1029.97 1029.86 1029.85 1029.85 1029.94 1029.92 1029.96 1029.97 1029.73 1029.60 1029.35 1029.04 1029.18 1028.79 1027.67 1027.09 1026.69 1026.31 1025.68 1024.93 1024.25 1023.82 1023.19 1022.46 1021.70 1021.16 1020.67 1020.67 1020.19 1019.98
1035.19 1031.05 1031.06 1030.86 1030.84 1031.17 1031.34 1031.48 1031.18 1031.00 1030.82 1030.80 1030.76 1030.31 1030.24 1030.23 1030.17 1030.06 1030.04 1030.04 1029.98 1030.00 1030.02 1029.89 1029.80 1029.71 1029.64 1028.81 1028.31 1028.01 1027.30 1026.67 1026.02 1025.69 1024.91 1024.61 1024.22 1023.55 1022.87 1022.27 1021.79 1021.55 1021.40 1021.09
1033.96 1031.58 1031.23 1030.86 1031.39 1031.08 1031.38 1031.67 1031.84 1031.61 1031.39 1031.25 1031.20 1030.82 1030.80 1030.82 1030.52 1030.53 1030.47 1030.29 1030.23 1030.27 1030.23 1030.11 1029.99 1029.53 1029.23 1028.95 1028.57 1028.37 1028.01 1027.32 1026.71 1026.36 1025.87 1025.37 1024.96 1024.45 1023.84 1023.23 1022.69 1022.18 1022.38 1022.08
1031.67 1030.34 1030.94 1031.19 1031.03 1031.65 1032.00 1031.72 1031.50 1031.83 1031.84 1031.38 1031.38 1031.23 1031.09 1030.92 1030.68 1030.87 1030.84 1030.62 1030.49 1030.33 1030.21 1029.91 1029.71 1029.44 1029.16 1028.93 1028.71 1028.49 1028.15 1027.79 1027.26 1026.93 1026.77 1026.18 1025.66 1024.87 1024.40 1024.03 1023.80 1023.33 1022.90 1022.78
1029.87 1030.29 1030.97 1030.67 1031.37 1031.64 1032.06 1031.45 1031.40 1031.38 1031.27 1031.74 1031.20 1031.40 1031.40 1031.20 1030.84 1030.53 1030.49 1030.74 1030.75 1030.40 1030.17 1029.94 1029.80 1029.63 1029.28 1029.00 1028.92 1028.71 1028.47 1028.15 1027.99 1027.65 1027.51 1027.10 1026.46 1026.00 1025.46 1024.96 1024.54 1024.31 1023.80 1023.35
1029.61 1030.52 1030.87 1030.99 1031.26 1031.13 1031.33 1031.30 1031.15 1031.07 1030.96 1030.94 1031.08 1031.53 1031.25 1031.07 1031.10 1030.58 1030.44 1029.96 1030.04 1030.06 1030.05 1029.89 1029.72 1029.34 1029.04 1028.97 1028.90 1028.86 1028.70 1028.17 1028.16 1028.06 1027.70 1027.35 1027.08 1026.83 1026.47 1026.12 1025.76 1025.30 1024.98 1024.40
1028.60 1029.29 1029.53 1030.20 1030.59 1030.83 1030.94 1030.95 1031.05 1031.08 1030.64 1030.43 1030.32 1030.38 1030.50 1030.41 1030.21 1029.79 1029.52 1029.67 1029.83 1029.84 1029.61 1029.63 1029.53 1028.94 1028.72 1028.64 1028.64 1028.57 1028.59 1028.42 1028.18 1028.21 1027.94 1027.46 1027.36 1027.19 1027.08 1026.78 1026.60 1026.36 1025.73 1025.23
1027.29 1027.97 1028.85 1029.44 1029.39 1029.80 1029.99 1030.07 1030.00 1029.47 1029.56 1029.28 1029.16 1028.99 1028.81 1028.92 1028.93 1028.81 1028.80 1029.02 1029.50 1029.14 1028.81 1028.91 1028.78 1028.32 1028.42 1028.45 1028.44 1028.52 1028.45 1028.12 1027.65 1028.03 1028.00 1027.76 1027.56 1027.48 1027.46 1027.37 1027.15 1026.88 1026.66 1026.24
1026.44 1026.77 1027.28 1027.51 1027.67 1027.48 1027.64 1027.85 1027.79 1027.86 1027.83 1027.81 1027.58 1027.40 1027.38 1027.56 1027.70 1027.79 1027.73 1027.89 1027.99 1027.97 1028.06 1028.19 1027.86 1027.74 1027.88 1027.91 1027.90 1027.93 1028.15 1028.06 1027.77 1028.08 1028.04 1028.03 1027.78 1027.68 1027.60 1027.58 1027.49 1027.24 1027.04 1026.78
1024.00 1024.24 1024.53 1024.75 1025.14 1025.55 1026.04 1026.17 1026.45 1026.54 1026.56 1026.45 1026.40 1026.42 1026.54 1026.67 1026.66 1026.58 1026.59 1026.71 1026.97 1027.14 1027.09 1026.80 1026.87 1027.07 1027.28 1027.47 1027.68 1027.81 1027.87 1027.88 1027.94 1028.17 1027.99 1028.05 1027.88 1027.68 1027.79 1027.65 1027.58 1027.67 1027.58 1027.13
1023.15 1023.28 1023.59 1023.75 1023.95 1024.41 1024.67 1025.06 1025.23 1025.38 1025.45 1025.57 1025.78 1025.73 1025.71 1025.76 1025.75 1025.69 1025.77 1026.05 1026.40 1026.46 1025.88 1025.84 1025.93 1025.97 1026.29 1026.53 1026.71 1026.88 1027.20 1027.39 1027.55 1027.64 1027.63 1027.40 1027.35 1027.39 1027.57 1027.58 1027.47 1027.40 1027.41 1027.35
1022.12 1022.39 1022.60 1022.90 1023.31 1023.70 1024.00 1024.22 1024.41 1024.78 1024.97 1025.14 1025.25 1025.30 1025.20 1025.15 1025.14 1025.15 1025.22 1025.40 1025.37 1025.37 1025.28 1025.24 1025.28 1025.43 1025.62 1025.82 1025.95 1026.19 1026.56 1026.82 1027.02 1027.15 1027.23 1027.24 1027.22 1027.20 1027.12 1026.87 1026.86 1026.96 1027.00 1027.14
1021.19 1021.63 1022.02 1022.43 1022.83 1023.18 1023.57 1023.72 1024.25 1024.47 1024.64 1024.83 1025.01 1025.07 1025.04 1024.90 1024.94 1025.01 1025.06 1025.09 1024.92 1024.85 1024.86 1024.88 1024.98 1025.11 1025.18 1025.30 1025.39 1025.48 1025.76 1026.04 1026.28 1026.43 1026.49 1026.48 1026.56 1026.71 1026.81 1026.78 1026.68 1026.63 1026.65 1026.64
1020.69 1021.09 1021.48 1022.01 1022.54 1022.94 1023.22 1023.55 1024.00 1024.33 1024.57 1024.69 1024.83 1024.86 1024.98 1024.93 1024.90 1024.92 1024.93 1025.02 1024.71 1024.55 1024.48 1024.57 1024.62 1024.63 1024.58 1024.52 1024.55 1024.74 1024.96 1025.22 1025.43 1025.62 1025.86 1025.96 1026.08 1026.12 1026.14 1026.17 1026.28 1026.13 1026.19 1026.29
1020.24 1020.68 1021.22 1021.82 1022.31 1022.79 1023.16 1023.74 1024.07 1024.27 1024.54 1024.63 1024.70 1024.81 1024.87 1024.91 1024.89 1024.97 1024.85 1024.63 1024.48 1024.36 1024.12 1024.08 1024.04 1023.80 1023.54 1023.40 1023.57 1023.83 1024.11 1024.35 1024.59 1024.79 1024.94 1025.08 1025.16 1025.31 1025.39 1025.38 1025.37 1025.42 1025.63 1025.65
1020.06 1020.55 1021.03 1021.61 1022.31 1022.97 1023.53 1023.74 1023.87 1024.00 1024.14 1024.32 1024.51 1024.64 1024.70 1024.80 1024.78 1024.66 1024.61 1024.41 1024.12 1023.98 1024.00 1023.80 1023.60 1023.31 1022.92 1023.03 1023.28 1023.53 1023.69 1023.83 1023.98 1024.10 1024.22 1024.21 1024.44 1024.52 1024.66 1024.74 1024.84 1024.86 1024.96 1025.04
1020.01 1020.57 1021.13 1021.75 1022.36 1022.83 1023.17 1023.34 1023.64 1023.90 1024.11 1024.21 1024.28 1024.50 1024.49 1024.46 1024.64 1024.46 1024.41 1024.33 1024.10 1023.85 1023.84 1023.69 1023.32 1023.02 1023.39 1023.52 1023.64 1023.71 1023.77 1023.82 1023.86 1023.89 1023.89 1023.96 1024.03 1024.15 1024.18 1024.23 1024.30 1024.40 1024.48 1024.53
1020.23 1020.69 1021.18 1021.55 1021.92 1022.39 1022.72 1023.17 1023.65 1023.90 1024.05 1024.19 1024.10 1024.21 1024.29 1024.32 1024.35 1024.26 1024.29 1024.10 1023.94 1023.77 1023.74 1023.72 1023.59 1023.39 1023.24 1023.24 1023.32 1023.33 1023.33 1023.35 1023.30 1023.25 1023.24 1023.29 1023.37 1023.44 1023.53 1023.63 1023.75 1023.83 1023.90 1024.02
1020.46 1020.88 1021.48 1021.80 1022.05 1022.27 1022.69 1023.17 1023.67 1023.78 1023.75 1023.92 1023.99 1024.09 1024.17 1024.18 1024.21 1024.03 1024.08 1024.17 1024.04 1023.90 1023.76 1023.61 1023.45 1023.27 1023.05 1022.89 1022.78 1022.73 1022.71 1022.71 1022.72 1022.73 1022.72 1022.69 1022.72 1022.75 1022.84 1022.92 1023.03 1023.06 1023.12 1023.20
Thickness
5209 5214 5208 5202 5189 5145 5125 5105 5131 5133 5120 5177 5175 5178 5193 5209 5230 5244 5252 5265 5281 5289 5303 5316 5331 5347 5361 5376 5391 5408 5431 5448 5464 5482 5500 5517 5529 5543 5554 5564 5576 5589 5601 5603
5217 5235 5225 5214 5212 5185 5149 5079 5096 5087 5127 5155 5166 5171 5186 5202 5218 5230 5244 5256 5266 5276 5287 5302 5316 5327 5342 5358 5376 5394 5412 5427 5441 5462 5475 5496 5508 5522 5542 5557 5568 5579 5582 5594
5208 5223 5218 5211 5197 5191 5156 5131 5142 5148 5163 5147 5166 5182 5191 5193 5202 5215 5230 5240 5249 5260 5271 5288 5301 5311 5325 5345 5361 5376 5392 5407 5421 5438 5455 5468 5487 5507 5522 5535 5545 5554 5567 5580
5196 5204 5194 5220 5204 5202 5190 5181 5161 5170 5168 5163 5168 5164 5173 5182 5190 5203 5211 5225 5235 5246 5256 5275 5285 5296 5310 5328 5343 5355 5370 5390 5406 5420 5435 5450 5471 5483 5499 5512 5523 5535 5546 5556
5166 5159 5223 5234 5211 5194 5178 5189 5187 5172 5175 5172 5168 5163 5168 5186 5187 5196 5202 5210 5222 5231 5246 5261 5272 5284 5297 5312 5325 5338 5353 5369 5386 5402 5414 5429 5446 5460 5475 5493 5510 5517 5522 5533
5169 5175 5207 5214 5214 5195 5184 5175 5192 5178 5179 5174 5167 5151 5161 5180 5183 5188 5200 5207 5213 5227 5235 5243 5257 5267 5280 5294 5308 5322 5338 5351 5364 5380 5396 5409 5422 5437 5454 5469 5481 5492 5501 5510
5189 5183 5211 5220 5206 5195 5164 5199 5195 5180 5177 5167 5151 5160 5167 5170 5174 5183 5188 5196 5207 5212 5214 5225 5243 5251 5263 5275 5288 5304 5319 5334 5349 5363 5379 5390 5403 5417 5434 5447 5462 5471 5480 5490
5194 5171 5202 5218 5199 5186 5203 5186 5194 5179 5172 5163 5162 5161 5163 5165 5167 5172 5177 5184 5191 5198 5206 5216 5226 5237 5248 5258 5272 5286 5301 5314 5330 5347 5357 5368 5384 5399 5416 5428 5441 5450 5458 5468
5222 5249 5232 5230 5219 5210 5175 5173 5168 5161 5166 5160 5153 5156 5158 5159 5159 5160 5165 5171 5177 5186 5195 5204 5213 5222 5228 5240 5258 5271 5281 5294 5307 5321 5336 5349 5363 5376 5389 5402 5414 5423 5435 5445
5231 5252 5233 5230 5227 5189 5177 5179 5160 5157 5152 5151 5146 5146 5148 5149 5145 5150 5154 5157 5166 5174 5181 5190 5197 5204 5210 5224 5237 5248 5261 5274 5289 5300 5314 5325 5337 5350 5365 5377 5389 5398 5408 5420
5226 5245 5234 5226 5206 5211 5182 5170 5157 5147 5143 5142 5135 5137 5134 5131 5134 5136 5140 5143 5150 5157 5166 5175 5184 5193 5201 5210 5219 5230 5241 5253 5267 5279 5291 5302 5313 5325 5338 5352 5364 5378 5383 5395
5269 5260 5241 5230 5208 5181 5176 5175 5168 5151 5140 5131 5125 5132 5119 5126 5125 5122 5127 5130 5137 5144 5151 5162 5170 5181 5190 5199 5207 5214 5224 5236 5246 5256 5266 5279 5291 5305 5316 5328 5338 5350 5360 5370
5271 5228 5219 5215 5199 5181 5178 5172 5154 5147 5138 5134 5121 5116 5110 5111 5111 5120 5122 5119 5122 5130 5136 5143 5152 5163 5172 5183 5191 5198 5206 5216 5224 5234 5242 5253 5266 5278 5290 5302 5314 5324 5335 5347
5229 5231 5236 5205 5219 5181 5170 5158 5151 5138 5125 5120 5115 5106 5103 5104 5104 5109 5115 5122 5119 5120 5124 5129 5136 5147 5157 5166 5174 5181 5189 5200 5207 5214 5223 5234 5244 5253 5263 5274 5285 5297 5307 5319
5249 5232 5230 5203 5189 5179 5159 5151 5151 5138 5128 5120 5111 5109 5099 5103 5103 5109 5111 5109 5111 5113 5119 5120 5124 5135 5142 5149 5159 5165 5173 5181 5190 5196 5205 5216 5224 5232 5241 5251 5259 5270 5282 5294
5247 5226 5212 5205 5203 5185 5171 5157 5148 5142 5131 5126 5124 5120 5116 5110 5108 5108 5109 5106 5105 5112 5117 5116 5120 5128 5129 5133 5139 5145 5152 5165 5177 5178 5187 5196 5204 5211 5218 5226 5235 5245 5255 5266
5262 5252 5225 5215 5209 5200 5187 5174 5164 5153 5144 5135 5130 5125 5121 5116 5110 5109 5109 5109 5109 5110 5111 5111 5115 5120 5121 5124 5127 5132 5135 5142 5155 5158 5166 5174 5184 5192 5200 5205 5212 5221 5230 5240
5274 5261 5248 5239 5225 5207 5189 5178 5165 5154 5143 5135 5129 5123 5118 5114 5111 5112 5111 5109 5105 5105 5107 5111 5112 5113 5112 5113 5114 5116 5120 5125 5130 5135 5143 5151 5161 5170 5177 5184 5191 5197 5205 5216
5267 5256 5244 5234 5220 5204 5192 5177 5166 5154 5143 5133 5124 5120 5116 5112 5110 5110 5109 5104 5101 5100 5107 5109 5109 5111 5108 5108 5110 5110 5112 5114 5117 5120 5126 5135 5142 5148 5156 5164 5172 5179 5185 5192
5269 5255 5243 5231 5215 5199 5188 5174 5163 5148 5136 5126 5120 5115 5113 5110 5108 5106 5105 5103 5102 5101 5103 5103 5104 5102 5101 5100 5103 5102 5100 5102 5104 5106 5110 5115 5121 5127 5134 5144 5152 5158 5164 5171
5270 5255 5240 5224 5209 5195 5182 5167 5152 5137 5130 5121 5114 5108 5106 5105 5101 5099 5098 5095 5098 5098 5097 5098 5097 5095 5094 5095 5095 5093 5092 5092 5093 5094 5098 5102 5106 5110 5115 5119 5127 5135 5142 5150
5264 5250 5235 5218 5203 5189 5174 5159 5143 5133 5123 5115 5107 5102 5097 5095 5094 5092 5091 5089 5091 5092 5092 5090 5089 5088 5088 5090 5090 5087 5086 5084 5083 5083 5084 5087 5090 5094 5098 5102 5107 5114 5120 5125
5257 5240 5226 5210 5195 5179 5165 5149 5135 5125 5115 5107 5101 5095 5091 5088 5086 5084 5085 5085 5085 5085 5086 5083 5083 5084 5085 5086 5084 5081 5078 5077 5076 5076 5076 5077 5079 5082 5085 5089 5093 5098 5100 5106
5249 5233 5216 5202 5182 5167 5150 5140 5128 5119 5110 5102 5095 5089 5085 5081 5081 5081 5080 5080 5081 5080 5077 5075 5075 5076 5078 5075 5071 5069 5068 5066 5065 5065 5065 5068 5068 5069 5071 5074 5078 5082 5085 5090
5236 5220 5205 5188 5173 5159 5145 5133 5122 5111 5101 5094 5088 5083 5080 5079 5075 5076 5073 5071 5072 5071 5067 5066 5066 5066 5061 5057 5055 5054 5053 5052 5051 5052 5052 5053 5054 5055 5057 5060 5062 5065 5069 5073
5226 5210 5195 5181 5167 5152 5138 5125 5111 5101 5093 5087 5084 5080 5076 5073 5071 5069 5065 5065 5063 5061 5057 5053 5050 5049 5048 5046 5045 5043 5043 5042 5044 5045 5046 5046 5046 5046 5047 5048 5049 5051 5054 5058
5215 5202 5181 5169 5155 5142 5127 5114 5099 5093 5089 5082 5078 5075 5071 5068 5065 5064 5060 5054 5051 5048 5044 5042 5040 5039 5038 5037 5037 5036 5036 5035 5035 5035 5036 5037 5037 5038 5039 5040 5042 5044 5046 5048